Voltar ao catálogo

STARLINK-2471

AtivoComunicaçõesVLEO
NORAD 48129·PAYLOAD·🇺🇸 United States

Lançado Apr 7, 2021 de Cape Canaveral Space Force Station

Loading…

Próximas Passagens (próximas 24 horas)

TLE

AtualizadoSource: CelesTrak SupGP

Época: Sep 15, 2026, 02:14 UTC

1 48129C 21027AP  26258.09354167  .00030502  00000+0  98046-3 0  2581
2 48129  53.1613   4.1245 0001281  85.8284 211.0733 15.31700020    15

Acompanhe STARLINK-2471 em tempo real com AllMySat

Download on the App Store